{"data":{"norad_id":53658,"intl_designator":"2022-105L","name":"STARLINK-4452","alt_names":[],"object_type":"PAYLOAD","status":"ACTIVE","operator":null,"country":"US","launch_date":"2022-08-31","launch_site_code":"AFWTR","launch_vehicle":null,"mission":null,"orbit_class":"UNKNOWN","rcs_meters":null,"size_class":null,"mass_kg":null,"dimensions":null,"purposes":["comms"],"wikipedia_slug":null,"has_3d_model":false,"image_url":null,"decayed_at":null,"tle_current":{"epoch":"2026-05-25T02:58:55.858368Z","epoch_age_seconds":67807,"freshness":"FRESH","line1":"1 53658U 22105L   26145.12425762  .00006772  00000+0  47343-3 0  9999","line2":"2 53658  97.4497  26.2284 0001966  81.6047 278.5403 15.05612973204803","mean_motion":15.05612973,"eccentricity":0.0001966,"inclination_deg":97.4497,"raan_deg":26.2284,"arg_perigee_deg":81.6047,"mean_anomaly_deg":278.5403,"bstar":0.00047343,"rev_number":20480,"period_min":95.642108949868,"perigee_km":548.26273506161,"apogee_km":550.98673097503,"semimajor_km":6927.7617330183,"source":"CELESTRAK","updated_at":"2026-05-25T13:38:17.486318Z"}}}